Time,TemperatureF,DewpointF,PressureIn,WindDirection,WindDirectionDegrees,WindSpeedMPH,WindSpeedGustMPH,Humidity,HourlyPrecipIn,Conditions,Clouds,dailyrainin,SoftwareType,DateUTC
2013-04-21 00:00:00,46.5,44.9,30.22,ESE,108,0.0,0.0,94,0.00,,,0.15,Wunderground v.1.15,2013-04-21 04:00:00,
2013-04-21 00:05:00,46.5,44.9,30.21,ESE,108,0.0,0.0,94,0.00,,,0.00,Wunderground v.1.15,2013-04-21 04:05:00,
2013-04-21 00:10:00,46.4,44.8,30.22,ESE,108,0.0,0.0,94,0.00,,,0.00,Wunderground v.1.15,2013-04-21 04:10:00,
2013-04-21 00:15:00,46.4,44.8,30.22,ESE,108,0.0,0.0,94,0.00,,,0.00,Wunderground v.1.15,2013-04-21 04:15:00,
2013-04-21 00:20:00,46.3,44.9,30.22,ESE,108,0.0,0.0,95,0.00,,,0.00,Wunderground v.1.15,2013-04-21 04:20:00,
2013-04-21 00:30:00,46.2,44.8,30.22,ESE,108,0.0,0.0,95,0.00,,,0.00,Wunderground v.1.15,2013-04-21 04:30:00,
2013-04-21 00:35:00,46.2,44.8,30.22,ESE,108,0.0,0.0,95,0.00,,,0.00,Wunderground v.1.15,2013-04-21 04:35:00,
2013-04-21 00:40:00,46.1,44.7,30.21,ESE,108,0.0,0.0,95,0.00,,,0.00,Wunderground v.1.15,2013-04-21 04:40:00,
2013-04-21 00:50:00,46.0,44.6,30.22,ESE,108,0.0,0.0,95,0.00,,,0.00,Wunderground v.1.15,2013-04-21 04:50:00,
2013-04-21 00:55:00,45.9,44.5,30.22,ESE,108,0.0,0.0,95,0.00,,,0.00,Wunderground v.1.15,2013-04-21 04:55:00,
2013-04-21 01:05:00,45.8,44.4,30.22,ESE,108,0.0,0.0,95,0.00,,,0.00,Wunderground v.1.15,2013-04-21 05:05:00,
2013-04-21 01:15:00,45.7,44.4,30.22,ESE,108,0.0,0.0,95,0.00,,,0.00,Wunderground v.1.15,2013-04-21 05:15:00,
2013-04-21 01:25:00,45.5,44.2,30.22,ESE,108,0.0,0.0,95,0.00,,,0.00,Wunderground v.1.15,2013-04-21 05:25:00,
2013-04-21 01:30:00,45.4,44.1,30.22,ESE,108,0.0,0.0,95,0.00,,,0.00,Wunderground v.1.15,2013-04-21 05:30:00,
2013-04-21 01:40:00,45.2,43.9,30.22,ESE,108,0.0,0.0,95,0.00,,,0.00,Wunderground v.1.15,2013-04-21 05:40:00,
2013-04-21 01:50:00,45.0,43.7,30.22,ESE,108,0.0,0.0,95,0.00,,,0.00,Wunderground v.1.15,2013-04-21 05:50:00,
2013-04-21 02:00:00,44.9,43.6,30.22,ESE,108,0.0,0.0,95,0.00,,,0.00,Wunderground v.1.15,2013-04-21 06:00:00,
2013-04-21 02:05:00,44.8,43.5,30.22,ESE,108,0.0,0.0,95,0.00,,,0.00,Wunderground v.1.15,2013-04-21 06:05:00,
2013-04-21 02:15:00,44.7,43.4,30.22,ESE,108,0.0,0.0,95,0.00,,,0.00,Wunderground v.1.15,2013-04-21 06:15:00,
2013-04-21 02:25:00,44.6,43.3,30.22,ESE,108,0.0,0.0,95,0.00,,,0.00,Wunderground v.1.15,2013-04-21 06:25:00,
2013-04-21 02:35:00,44.4,43.1,30.22,ESE,108,0.0,0.0,95,0.00,,,0.00,Wunderground v.1.15,2013-04-21 06:35:00,
2013-04-21 02:40:00,44.3,43.0,30.22,ESE,108,0.0,0.0,95,0.00,,,0.00,Wunderground v.1.15,2013-04-21 06:40:00,
2013-04-21 02:45:00,44.2,42.9,30.22,ESE,108,0.0,0.0,95,0.00,,,0.00,Wunderground v.1.15,2013-04-21 06:45:00,
2013-04-21 02:55:00,44.0,42.7,30.22,ESE,108,0.0,0.0,95,0.00,,,0.00,Wunderground v.1.15,2013-04-21 06:55:00,
2013-04-21 03:00:00,43.9,42.6,30.23,ESE,108,0.0,0.0,95,0.00,,,0.00,Wunderground v.1.15,2013-04-21 07:00:00,
2013-04-21 03:10:00,43.9,42.8,30.22,ESE,108,0.0,0.0,96,0.00,,,0.00,Wunderground v.1.15,2013-04-21 07:10:00,
2013-04-21 03:20:00,43.9,42.8,30.22,ESE,108,0.0,0.0,96,0.00,,,0.00,Wunderground v.1.15,2013-04-21 07:20:00,
2013-04-21 03:25:00,43.9,42.8,30.22,ESE,108,0.0,0.0,96,0.00,,,0.00,Wunderground v.1.15,2013-04-21 07:25:00,
2013-04-21 03:35:00,43.8,42.5,30.22,ESE,108,0.0,0.0,95,0.00,,,0.00,Wunderground v.1.15,2013-04-21 07:35:00,
2013-04-21 03:45:00,43.7,42.6,30.22,ESE,108,0.0,0.0,96,0.00,,,0.00,Wunderground v.1.15,2013-04-21 07:45:00,
2013-04-21 03:55:00,43.6,42.3,30.23,ESE,108,0.0,0.0,95,0.00,,,0.00,Wunderground v.1.15,2013-04-21 07:55:00,
2013-04-21 04:00:00,43.4,42.1,30.23,ESE,108,0.0,0.0,95,0.00,,,0.00,Wunderground v.1.15,2013-04-21 08:00:00,
2013-04-21 04:10:00,43.3,42.0,30.23,ESE,108,0.0,0.0,95,0.00,,,0.00,Wunderground v.1.15,2013-04-21 08:10:00,
2013-04-21 04:15:00,43.3,42.0,30.22,ESE,108,0.0,0.0,95,0.00,,,0.00,Wunderground v.1.15,2013-04-21 08:15:00,
2013-04-21 04:25:00,43.1,41.8,30.23,ESE,108,0.0,0.0,95,0.00,,,0.00,Wunderground v.1.15,2013-04-21 08:25:00,
2013-04-21 04:30:00,43.0,41.7,30.22,ESE,108,0.0,0.0,95,0.00,,,0.00,Wunderground v.1.15,2013-04-21 08:30:00,
2013-04-21 04:40:00,42.9,41.6,30.23,ESE,108,0.0,0.0,95,0.00,,,0.00,Wunderground v.1.15,2013-04-21 08:40:00,
2013-04-21 04:50:00,42.8,41.5,30.23,ESE,108,0.0,0.0,95,0.00,,,0.00,Wunderground v.1.15,2013-04-21 08:50:00,
2013-04-21 05:00:00,42.6,41.3,30.23,ESE,108,0.0,0.0,95,0.00,,,0.00,Wunderground v.1.15,2013-04-21 09:00:00,
2013-04-21 05:10:00,42.4,41.1,30.23,ESE,108,0.0,0.0,95,0.00,,,0.00,Wunderground v.1.15,2013-04-21 09:10:00,
2013-04-21 05:20:00,42.3,41.0,30.23,ESE,108,0.0,0.0,95,0.00,,,0.00,Wunderground v.1.15,2013-04-21 09:20:00,
2013-04-21 05:30:00,42.1,40.8,30.24,ESE,108,0.0,0.0,95,0.00,,,0.00,Wunderground v.1.15,2013-04-21 09:30:00,
2013-04-21 05:40:00,42.0,40.7,30.25,ESE,108,0.0,0.0,95,0.00,,,0.00,Wunderground v.1.15,2013-04-21 09:40:00,
2013-04-21 05:50:00,42.0,40.7,30.25,ESE,108,0.0,0.0,95,0.00,,,0.00,Wunderground v.1.15,2013-04-21 09:50:00,
2013-04-21 06:00:00,41.9,40.6,30.25,ESE,108,0.0,0.0,95,0.00,,,0.00,Wunderground v.1.15,2013-04-21 10:00:00,
2013-04-21 06:10:00,41.9,40.6,30.26,ESE,108,0.0,0.0,95,0.00,,,0.00,Wunderground v.1.15,2013-04-21 10:10:00,
2013-04-21 06:20:00,41.8,40.5,30.26,ESE,108,0.0,0.0,95,0.00,,,0.00,Wunderground v.1.15,2013-04-21 10:20:00,
2013-04-21 06:30:00,41.7,40.4,30.26,ESE,108,0.0,0.0,95,0.00,,,0.00,Wunderground v.1.15,2013-04-21 10:30:00,
2013-04-21 06:35:00,41.6,40.3,30.27,ESE,108,0.0,0.0,95,0.00,,,0.00,Wunderground v.1.15,2013-04-21 10:35:00,
2013-04-21 06:45:00,41.8,40.5,30.28,ESE,108,0.0,0.0,95,0.00,,,0.01,Wunderground v.1.15,2013-04-21 10:45:00,
2013-04-21 06:50:00,41.9,40.8,30.28,ESE,108,0.0,0.0,96,0.00,,,0.01,Wunderground v.1.15,2013-04-21 10:50:00,
2013-04-21 07:00:00,42.0,40.9,30.28,ESE,108,0.0,0.0,96,0.00,,,0.01,Wunderground v.1.15,2013-04-21 11:00:00,
2013-04-21 07:10:00,42.3,41.2,30.29,ESE,108,0.0,0.0,96,0.00,,,0.01,Wunderground v.1.15,2013-04-21 11:10:00,
2013-04-21 07:20:00,42.7,41.6,30.29,ESE,108,0.0,0.0,96,0.00,,,0.01,Wunderground v.1.15,2013-04-21 11:20:00,
2013-04-21 07:30:00,43.5,42.4,30.29,ESE,108,0.0,0.0,96,0.00,,,0.01,Wunderground v.1.15,2013-04-21 11:30:00,
2013-04-21 07:40:00,45.0,43.9,30.29,ESE,108,0.0,0.0,96,0.00,,,0.01,Wunderground v.1.15,2013-04-21 11:40:00,
2013-04-21 07:45:00,45.6,44.3,30.30,ESE,108,0.0,0.0,95,0.00,,,0.01,Wunderground v.1.15,2013-04-21 11:45:00,
2013-04-21 07:55:00,46.7,44.8,30.30,SE,140,0.0,0.0,93,0.00,,,0.01,Wunderground v.1.15,2013-04-21 11:55:00,
2013-04-21 08:00:00,47.5,45.3,30.30,SSE,157,0.0,0.0,92,0.00,,,0.01,Wunderground v.1.15,2013-04-21 12:00:00,
2013-04-21 08:10:00,49.2,46.1,30.30,SSE,157,0.0,0.0,89,0.00,,,0.01,Wunderground v.1.15,2013-04-21 12:10:00,
2013-04-21 08:15:00,50.0,46.6,30.31,SSE,157,0.0,0.0,88,0.00,,,0.01,Wunderground v.1.15,2013-04-21 12:15:00,
2013-04-21 08:25:00,51.7,47.3,30.31,East,82,0.0,1.0,85,0.00,,,0.01,Wunderground v.1.15,2013-04-21 12:25:00,
2013-04-21 08:35:00,53.7,48.3,30.31,East,85,1.0,1.0,82,0.00,,,0.01,Wunderground v.1.15,2013-04-21 12:35:00,
2013-04-21 08:45:00,55.0,48.9,30.31,East,90,1.0,2.0,80,0.00,,,0.01,Wunderground v.1.15,2013-04-21 12:45:00,
2013-04-21 08:50:00,55.5,48.8,30.31,NE,53,1.0,1.0,78,0.00,,,0.01,Wunderground v.1.15,2013-04-21 12:50:00,
2013-04-21 09:00:00,56.4,49.3,30.31,ENE,77,1.0,1.0,77,0.00,,,0.01,Wunderground v.1.15,2013-04-21 13:00:00,
2013-04-21 09:05:00,56.8,49.3,30.31,ENE,68,1.0,2.0,76,0.00,,,0.01,Wunderground v.1.15,2013-04-21 13:05:00,
2013-04-21 09:15:00,57.5,49.6,30.32,East,84,1.0,2.0,75,0.00,,,0.01,Wunderground v.1.15,2013-04-21 13:15:00,
2013-04-21 09:20:00,57.9,50.0,30.32,ENE,72,1.0,1.0,75,0.00,,,0.01,Wunderground v.1.15,2013-04-21 13:20:00,
2013-04-21 09:30:00,58.6,50.3,30.32,NE,53,1.0,1.0,74,0.00,,,0.01,Wunderground v.1.15,2013-04-21 13:30:00,
2013-04-21 09:40:00,59.3,49.5,30.32,NW,324,2.0,3.0,70,0.00,,,0.01,Wunderground v.1.15,2013-04-21 13:40:00,
2013-04-21 09:50:00,59.9,49.7,30.32,NNE,20,2.0,2.0,69,0.00,,,0.01,Wunderground v.1.15,2013-04-21 13:50:00,
2013-04-21 10:00:00,60.1,50.3,30.32,East,89,2.0,3.0,70,0.00,,,0.01,Wunderground v.1.15,2013-04-21 14:00:00,
2013-04-21 10:05:00,60.3,49.7,30.32,NE,38,2.0,3.0,68,0.00,,,0.01,Wunderground v.1.15,2013-04-21 14:05:00,
2013-04-21 10:15:00,60.7,49.7,30.32,East,83,2.0,2.0,67,0.00,,,0.01,Wunderground v.1.15,2013-04-21 14:15:00,
2013-04-21 10:20:00,61.2,48.9,30.32,ENE,76,2.0,5.0,64,0.00,,,0.01,Wunderground v.1.15,2013-04-21 14:20:00,
2013-04-21 10:30:00,61.4,47.4,30.33,ENE,71,5.0,5.0,60,0.00,,,0.01,Wunderground v.1.15,2013-04-21 14:30:00,
2013-04-21 10:35:00,61.8,47.3,30.33,East,86,4.0,5.0,59,0.00,,,0.01,Wunderground v.1.15,2013-04-21 14:35:00,
2013-04-21 10:40:00,62.1,47.1,30.33,East,79,4.0,5.0,58,0.00,,,0.01,Wunderground v.1.15,2013-04-21 14:40:00,
2013-04-21 10:50:00,62.4,47.0,30.33,ENE,69,4.0,4.0,57,0.00,,,0.01,Wunderground v.1.15,2013-04-21 14:50:00,
2013-04-21 11:00:00,62.8,46.9,30.33,ENE,65,4.0,7.0,56,0.00,,,0.01,Wunderground v.1.15,2013-04-21 15:00:00,
2013-04-21 11:10:00,63.2,46.3,30.33,East,79,3.0,3.0,54,0.00,,,0.01,Wunderground v.1.15,2013-04-21 15:10:00,
2013-04-21 11:20:00,64.0,46.5,30.33,ENE,70,3.0,7.0,53,0.00,,,0.01,Wunderground v.1.15,2013-04-21 15:20:00,
2013-04-21 11:30:00,63.5,44.5,30.34,ENE,78,6.0,8.0,50,0.00,,,0.01,Wunderground v.1.15,2013-04-21 15:30:00,
2013-04-21 11:40:00,63.8,45.3,30.34,East,84,4.0,9.0,51,0.00,,,0.01,Wunderground v.1.15,2013-04-21 15:40:00,
2013-04-21 11:50:00,63.8,44.8,30.34,East,87,5.0,9.0,50,0.00,,,0.01,Wunderground v.1.15,2013-04-21 15:50:00,
2013-04-21 12:00:00,64.2,45.7,30.34,ENE,57,5.0,5.0,51,0.00,,,0.01,Wunderground v.1.15,2013-04-21 16:00:00,
2013-04-21 12:10:00,64.8,46.8,30.34,ESE,111,3.0,3.0,52,0.00,,,0.01,Wunderground v.1.15,2013-04-21 16:10:00,
2013-04-21 12:15:00,65.1,46.5,30.34,NE,38,3.0,3.0,51,0.00,,,0.01,Wunderground v.1.15,2013-04-21 16:15:00,
2013-04-21 12:25:00,65.1,45.5,30.34,NE,50,5.0,9.0,49,0.00,,,0.01,Wunderground v.1.15,2013-04-21 16:25:00,
2013-04-21 12:35:00,64.7,45.6,30.33,NNE,29,5.0,6.0,50,0.00,,,0.01,Wunderground v.1.15,2013-04-21 16:35:00,
2013-04-21 12:45:00,64.4,44.8,30.33,NE,34,6.0,15.0,49,0.00,,,0.01,Wunderground v.1.15,2013-04-21 16:45:00,
2013-04-21 12:55:00,64.8,46.2,30.33,East,89,5.0,7.0,51,0.00,,,0.01,Wunderground v.1.15,2013-04-21 16:55:00,
2013-04-21 13:00:00,64.8,46.2,30.33,ENE,74,6.0,11.0,51,0.00,,,0.01,Wunderground v.1.15,2013-04-21 17:00:00,
2013-04-21 13:10:00,64.9,47.4,30.33,NE,38,6.0,6.0,53,0.00,,,0.01,Wunderground v.1.15,2013-04-21 17:10:00,
2013-04-21 13:20:00,66.0,48.4,30.33,ENE,65,5.0,7.0,53,0.00,,,0.01,Wunderground v.1.15,2013-04-21 17:20:00,
2013-04-21 13:30:00,65.0,47.9,30.33,East,98,6.0,6.0,54,0.00,,,0.01,Wunderground v.1.15,2013-04-21 17:30:00,
2013-04-21 13:40:00,64.9,48.3,30.33,NE,38,6.0,6.0,55,0.00,,,0.01,Wunderground v.1.15,2013-04-21 17:40:00,
2013-04-21 13:50:00,64.7,48.2,30.33,ENE,66,6.0,9.0,55,0.00,,,0.01,Wunderground v.1.15,2013-04-21 17:50:00,
2013-04-21 13:55:00,64.9,48.8,30.33,NE,53,7.0,9.0,56,0.00,,,0.01,Wunderground v.1.15,2013-04-21 17:55:00,
2013-04-21 14:05:00,65.6,48.5,30.32,ENE,69,5.0,6.0,54,0.00,,,0.01,Wunderground v.1.15,2013-04-21 18:05:00,
2013-04-21 14:10:00,66.1,49.5,30.32,ESE,103,4.0,7.0,55,0.00,,,0.01,Wunderground v.1.15,2013-04-21 18:10:00,
2013-04-21 14:20:00,66.1,49.0,30.32,ESE,112,5.0,5.0,54,0.00,,,0.01,Wunderground v.1.15,2013-04-21 18:20:00,
2013-04-21 14:30:00,65.0,47.9,30.32,East,84,7.0,10.0,54,0.00,,,0.01,Wunderground v.1.15,2013-04-21 18:30:00,
2013-04-21 14:40:00,65.3,49.2,30.32,ENE,72,7.0,9.0,56,0.00,,,0.01,Wunderground v.1.15,2013-04-21 18:40:00,
2013-04-21 14:50:00,65.7,47.6,30.32,East,83,6.0,11.0,52,0.00,,,0.01,Wunderground v.1.15,2013-04-21 18:50:00,
2013-04-21 15:00:00,65.3,47.7,30.31,East,96,7.0,7.0,53,0.00,,,0.01,Wunderground v.1.15,2013-04-21 19:00:00,
2013-04-21 15:05:00,65.7,48.1,30.31,ENE,75,6.0,7.0,53,0.00,,,0.01,Wunderground v.1.15,2013-04-21 19:05:00,
2013-04-21 15:15:00,65.4,47.8,30.31,NE,43,6.0,6.0,53,0.00,,,0.01,Wunderground v.1.15,2013-04-21 19:15:00,
2013-04-21 15:20:00,64.8,48.2,30.31,North,5,6.0,6.0,55,0.00,,,0.01,Wunderground v.1.15,2013-04-21 19:20:00,
2013-04-21 15:30:00,64.3,47.8,30.30,East,83,7.0,13.0,55,0.00,,,0.01,Wunderground v.1.15,2013-04-21 19:30:00,
2013-04-21 15:35:00,64.5,48.4,30.30,ENE,75,7.0,13.0,56,0.00,,,0.01,Wunderground v.1.15,2013-04-21 19:35:00,
2013-04-21 15:45:00,64.3,47.3,30.31,East,90,7.0,16.0,54,0.00,,,0.01,Wunderground v.1.15,2013-04-21 19:45:00,
2013-04-21 15:55:00,63.7,47.2,30.30,East,94,5.0,7.0,55,0.00,,,0.01,Wunderground v.1.15,2013-04-21 19:55:00,
2013-04-21 16:05:00,63.9,46.4,30.30,ENE,60,5.0,5.0,53,0.00,,,0.01,Wunderground v.1.15,2013-04-21 20:05:00,
2013-04-21 16:10:00,63.8,46.8,30.30,ENE,67,5.0,5.0,54,0.00,,,0.01,Wunderground v.1.15,2013-04-21 20:10:00,
2013-04-21 16:20:00,63.4,46.5,30.30,NE,39,6.0,6.0,54,0.00,,,0.01,Wunderground v.1.15,2013-04-21 20:20:00,
2013-04-21 16:30:00,63.9,46.9,30.29,ENE,78,6.0,7.0,54,0.00,,,0.01,Wunderground v.1.15,2013-04-21 20:30:00,
2013-04-21 16:40:00,64.1,47.1,30.29,East,90,6.0,7.0,54,0.00,,,0.01,Wunderground v.1.15,2013-04-21 20:40:00,
2013-04-21 16:45:00,63.7,47.2,30.29,SE,125,5.0,7.0,55,0.00,,,0.01,Wunderground v.1.15,2013-04-21 20:45:00,
2013-04-21 16:50:00,63.3,45.9,30.29,NE,34,5.0,8.0,53,0.00,,,0.01,Wunderground v.1.15,2013-04-21 20:50:00,
2013-04-21 17:00:00,62.9,46.0,30.29,NE,54,4.0,4.0,54,0.00,,,0.01,Wunderground v.1.15,2013-04-21 21:00:00,
2013-04-21 17:10:00,62.5,45.6,30.28,East,82,6.0,7.0,54,0.00,,,0.01,Wunderground v.1.15,2013-04-21 21:10:00,
2013-04-21 17:20:00,62.8,45.9,30.28,East,80,5.0,5.0,54,0.00,,,0.01,Wunderground v.1.15,2013-04-21 21:20:00,
2013-04-21 17:30:00,62.4,46.0,30.28,ENE,68,5.0,5.0,55,0.00,,,0.01,Wunderground v.1.15,2013-04-21 21:30:00,
2013-04-21 17:40:00,62.2,45.8,30.29,East,80,5.0,5.0,55,0.00,,,0.01,Wunderground v.1.15,2013-04-21 21:40:00,
2013-04-21 17:50:00,62.0,45.2,30.28,East,86,5.0,6.0,54,0.00,,,0.01,Wunderground v.1.15,2013-04-21 21:50:00,
2013-04-21 18:00:00,61.7,44.9,30.28,ENE,72,4.0,5.0,54,0.00,,,0.01,Wunderground v.1.15,2013-04-21 22:00:00,
2013-04-21 18:10:00,61.3,45.0,30.29,ENE,76,5.0,7.0,55,0.00,,,0.01,Wunderground v.1.15,2013-04-21 22:10:00,
2013-04-21 18:20:00,61.5,44.7,30.29,ENE,67,5.0,5.0,54,0.00,,,0.01,Wunderground v.1.15,2013-04-21 22:20:00,
2013-04-21 18:30:00,60.9,45.1,30.29,East,94,5.0,5.0,56,0.00,,,0.01,Wunderground v.1.15,2013-04-21 22:30:00,
2013-04-21 18:40:00,60.4,45.1,30.29,East,85,4.0,4.0,57,0.00,,,0.01,Wunderground v.1.15,2013-04-21 22:40:00,
2013-04-21 18:50:00,60.2,44.9,30.29,ENE,65,5.0,5.0,57,0.00,,,0.01,Wunderground v.1.15,2013-04-21 22:50:00,
2013-04-21 18:55:00,60.0,45.6,30.29,East,89,4.0,5.0,59,0.00,,,0.01,Wunderground v.1.15,2013-04-21 22:55:00,
2013-04-21 19:00:00,59.9,46.4,30.29,East,87,5.0,5.0,61,0.00,,,0.01,Wunderground v.1.15,2013-04-21 23:00:00,
2013-04-21 19:10:00,59.7,45.8,30.29,NE,35,4.0,6.0,60,0.00,,,0.01,Wunderground v.1.15,2013-04-21 23:10:00,
2013-04-21 19:15:00,59.6,45.2,30.30,ESE,102,4.0,7.0,59,0.00,,,0.01,Wunderground v.1.15,2013-04-21 23:15:00,
2013-04-21 19:25:00,59.5,44.7,30.30,ENE,75,3.0,9.0,58,0.00,,,0.01,Wunderground v.1.15,2013-04-21 23:25:00,
2013-04-21 19:30:00,59.4,44.6,30.30,NNE,12,4.0,5.0,58,0.00,,,0.01,Wunderground v.1.15,2013-04-21 23:30:00,
2013-04-21 19:40:00,59.2,44.4,30.31,East,86,3.0,6.0,58,0.00,,,0.01,Wunderground v.1.15,2013-04-21 23:40:00,
2013-04-21 19:50:00,59.1,43.9,30.32,East,89,3.0,3.0,57,0.00,,,0.01,Wunderground v.1.15,2013-04-21 23:50:00,
2013-04-21 20:00:00,59.0,45.1,30.32,NE,43,2.0,2.0,60,0.00,,,0.01,Wunderground v.1.15,2013-04-22 00:00:00,
2013-04-21 20:05:00,59.0,45.1,30.32,East,90,2.0,2.0,60,0.00,,,0.01,Wunderground v.1.15,2013-04-22 00:05:00,
2013-04-21 20:10:00,58.9,44.1,30.32,NE,48,2.0,2.0,58,0.00,,,0.01,Wunderground v.1.15,2013-04-22 00:10:00,
2013-04-21 20:20:00,58.8,41.7,30.33,ENE,61,2.0,2.0,53,0.00,,,0.01,Wunderground v.1.15,2013-04-22 00:20:00,
2013-04-21 20:30:00,58.7,42.1,30.33,East,100,3.0,3.0,54,0.00,,,0.01,Wunderground v.1.15,2013-04-22 00:30:00,
2013-04-21 20:40:00,58.6,42.5,30.34,East,85,2.0,2.0,55,0.00,,,0.01,Wunderground v.1.15,2013-04-22 00:40:00,
2013-04-21 20:50:00,58.4,41.8,30.34,East,90,2.0,7.0,54,0.00,,,0.01,Wunderground v.1.15,2013-04-22 00:50:00,
2013-04-21 21:00:00,58.3,41.7,30.34,East,86,3.0,3.0,54,0.00,,,0.01,Wunderground v.1.15,2013-04-22 01:00:00,
2013-04-21 21:10:00,58.1,40.6,30.34,ENE,70,3.0,3.0,52,0.00,,,0.01,Wunderground v.1.15,2013-04-22 01:10:00,
2013-04-21 21:20:00,57.9,40.4,30.33,ENE,78,3.0,3.0,52,0.00,,,0.01,Wunderground v.1.15,2013-04-22 01:20:00,
2013-04-21 21:30:00,57.7,41.2,30.34,ESE,102,3.0,7.0,54,0.00,,,0.01,Wunderground v.1.15,2013-04-22 01:30:00,
2013-04-21 21:40:00,57.5,41.4,30.35,East,90,2.0,2.0,55,0.00,,,0.01,Wunderground v.1.15,2013-04-22 01:40:00,
2013-04-21 21:50:00,57.3,42.2,30.34,NE,40,2.0,2.0,57,0.00,,,0.01,Wunderground v.1.15,2013-04-22 01:50:00,
2013-04-21 22:00:00,57.1,42.0,30.34,ENE,67,2.0,3.0,57,0.00,,,0.01,Wunderground v.1.15,2013-04-22 02:00:00,
2013-04-21 22:10:00,56.9,42.3,30.33,ENE,74,1.0,1.0,58,0.00,,,0.01,Wunderground v.1.15,2013-04-22 02:10:00,
2013-04-21 22:20:00,56.4,41.3,30.34,NE,56,2.0,2.0,57,0.00,,,0.01,Wunderground v.1.15,2013-04-22 02:20:00,
2013-04-21 22:30:00,56.1,41.5,30.33,East,89,1.0,1.0,58,0.00,,,0.01,Wunderground v.1.15,2013-04-22 02:30:00,
2013-04-21 22:35:00,55.9,41.8,30.34,East,93,1.0,1.0,59,0.00,,,0.01,Wunderground v.1.15,2013-04-22 02:35:00,
2013-04-21 22:45:00,55.5,42.3,30.34,East,88,1.0,1.0,61,0.00,,,0.01,Wunderground v.1.15,2013-04-22 02:45:00,
2013-04-21 22:50:00,55.3,42.5,30.33,NE,49,1.0,2.0,62,0.00,,,0.01,Wunderground v.1.15,2013-04-22 02:50:00,
2013-04-21 23:00:00,54.8,42.4,30.33,ENE,76,1.0,3.0,63,0.00,,,0.01,Wunderground v.1.15,2013-04-22 03:00:00,
2013-04-21 23:10:00,54.4,42.1,30.33,SE,145,1.0,1.0,63,0.00,,,0.01,Wunderground v.1.15,2013-04-22 03:10:00,
2013-04-21 23:20:00,54.0,42.1,30.32,SE,139,1.0,2.0,64,0.00,,,0.01,Wunderground v.1.15,2013-04-22 03:20:00,
2013-04-21 23:30:00,53.7,41.8,30.34,ENE,62,1.0,1.0,64,0.00,,,0.01,Wunderground v.1.15,2013-04-22 03:30:00,
2013-04-21 23:40:00,53.5,42.4,30.34,NE,55,1.0,1.0,66,0.00,,,0.01,Wunderground v.1.15,2013-04-22 03:40:00,
2013-04-21 23:45:00,53.4,41.9,30.34,East,88,0.0,1.0,65,0.00,,,0.01,Wunderground v.1.15,2013-04-22 03:45:00,
2013-04-21 23:55:00,53.2,42.1,30.33,ENE,76,1.0,3.0,66,0.00,,,0.01,Wunderground v.1.15,2013-04-22 03:55:00,